Oklahoma City, OK

7:38 AM CDT on August 26, 2016 (GMT -0500)
Wiley Post

Weather History for KPWA - April, 2014

Change the Weather History Date:

Saturday, April 26, 2014

  Actual Average Record
Temperature  
Mean Temperature 76 °F -  
Max Temperature 90 °F 72 °F 90 °F (2014)
Min Temperature 63 °F 49 °F 37 °F (2005)
Cooling Degree Days 11    
Growing Degree Days 26 (Base 50)    
Moisture  
Dew Point 50 °F    
Average Humidity 43    
Maximum Humidity 66    
Minimum Humidity 30    
Precipitation  
Precipitation 0.00 in - - ()
Sea Level Pressure  
Sea Level Pressure 29.61 in    
Wind  
Wind Speed 24 mph (South)    
Max Wind Speed 30 mph    
Max Gust Speed 46 mph    
Visibility 10 miles    
Events      
Averages and records for this station are not official NWS values.
T = Trace of Precipitation, MM = Missing Value Source: NWS Daily Summary

Daily Weather History Graph

Daily Weather History Graph

Search for Another Location

Airport or City:

Trip Planner

Search our weather history database for the weather conditions in past years. The results will help you decide how hot, cold, wet, or windy it might be!

Date:

Astronomy

Apr. 26, 2014 Rise Set
Actual Time 6:44 AM CDT 8:12 PM CDT
Civil Twilight 6:17 AM CDT 8:39 PM CDT
Nautical Twilight 5:45 AM CDT 9:12 PM CDT
Astronomical Twilight 5:11 AM CDT 9:46 PM CDT
Moon 5:03 AM CDT 5:47 PM CDT
Length of Visible Light 14h 22m
Length of Day
13h 28m
Waning Crescent, 8% of the Moon is Illuminated
Apr 26
Waning Crescent
Apr 29
New
May 6
First Quarter
May 14
Full
May 21
Last Quarter

Hourly Weather History & Observations

Time (CDT) Temp. Heat Index Dew Point Humidity Pressure Visibility Wind Dir Wind Speed Gust Speed Precip Events Conditions
12:53 AM 66.9 °F - 37.0 °F 33% 29.74 in 10.0 mi South 26.5 mph 32.2 mph N/A   Clear
1:53 AM 66.0 °F - 37.0 °F 34% 29.73 in 10.0 mi South 25.3 mph 33.4 mph N/A   Clear
2:53 AM 64.9 °F - 37.0 °F 36% 29.71 in 10.0 mi South 25.3 mph - N/A   Clear
3:53 AM 64.0 °F - 37.0 °F 37% 29.71 in 10.0 mi South 19.6 mph - N/A   Clear
4:53 AM 63.0 °F - 37.0 °F 38% 29.70 in 10.0 mi South 19.6 mph - N/A   Clear
5:53 AM 63.0 °F - 37.9 °F 40% 29.71 in 10.0 mi South 19.6 mph - N/A   Clear
6:53 AM 63.0 °F - 39.9 °F 43% 29.70 in 10.0 mi South 20.7 mph 31.1 mph N/A   Clear
7:53 AM 64.0 °F - 44.1 °F 48% 29.70 in 10.0 mi South 21.9 mph - N/A   Clear
8:53 AM 68.0 °F - 50.0 °F 52% 29.70 in 10.0 mi South 19.6 mph - N/A   Clear
9:53 AM 73.9 °F - 55.9 °F 53% 29.68 in 10.0 mi South 20.7 mph 29.9 mph N/A   Clear
10:53 AM 79.0 °F - 57.0 °F 47% 29.67 in 10.0 mi South 23.0 mph 33.4 mph N/A   Clear
11:53 AM 84.0 °F 83.0 °F 55.9 °F 38% 29.64 in 10.0 mi South 19.6 mph 29.9 mph N/A   Clear
12:53 PM 86.0 °F 84.5 °F 55.0 °F 35% 29.61 in 10.0 mi South 21.9 mph 34.5 mph N/A   Clear
1:53 PM 84.9 °F 83.2 °F 53.1 °F 33% 29.57 in 10.0 mi South 27.6 mph 34.5 mph N/A   Clear
2:53 PM 88.0 °F 86.1 °F 55.0 °F 32% 29.55 in 10.0 mi South 24.2 mph 34.5 mph N/A   Clear
3:53 PM 89.1 °F 86.9 °F 54.0 °F 30% 29.54 in 10.0 mi South 27.6 mph 40.3 mph N/A   Clear
4:53 PM 87.1 °F 85.1 °F 54.0 °F 32% 29.53 in 10.0 mi South 27.6 mph 36.8 mph N/A   Clear
5:53 PM 84.9 °F 83.3 °F 54.0 °F 34% 29.50 in 10.0 mi SSE 29.9 mph 46.0 mph N/A   Scattered Clouds
6:53 PM 82.0 °F 81.6 °F 55.9 °F 41% 29.51 in 10.0 mi South 28.8 mph 40.3 mph N/A   Clear
7:53 PM 79.0 °F - 57.9 °F 48% 29.50 in 10.0 mi SSE 25.3 mph 39.1 mph N/A   Clear
8:53 PM 75.9 °F - 60.1 °F 58% 29.50 in 10.0 mi SSE 27.6 mph 38.0 mph N/A   Clear
9:53 PM 73.9 °F - 60.1 °F 62% 29.52 in 10.0 mi South 27.6 mph 36.8 mph N/A   Clear
10:53 PM 73.0 °F - 60.1 °F 64% 29.53 in 10.0 mi South 29.9 mph 38.0 mph N/A   Clear
11:53 PM 73.0 °F - 61.0 °F 66% 29.50 in 10.0 mi South 26.5 mph 34.5 mph N/A   Clear